Change the Weather History Date:

Wednesday, October 15, 2014

  Actual Average Record
Temperature  
Mean Temperature 70 °F -  
Max Temperature 75 °F 63 °F 78 °F (1960)
Min Temperature 66 °F 45 °F 31 °F (1953)
Cooling Degree Days 6    
Growing Degree Days 20 (Base 50)    
Moisture  
Dew Point 64 °F    
Average Humidity 85    
Maximum Humidity 90    
Minimum Humidity 73    
Precipitation  
Precipitation 0.00 in - - ()
Sea Level Pressure  
Sea Level Pressure 30.10 in    
Wind  
Wind Speed 9 mph (South)    
Max Wind Speed 15 mph    
Max Gust Speed 24 mph    
Visibility 10 miles    
Events      
Averages and records for this station are not official NWS values.
T = Trace of Precipitation, MM = Missing Value Source: NWS Daily Summary

Daily Weather History Graph

Daily Weather History Graph

Search for Another Location

Airport or City:

Trip Planner

Search our weather history database for the weather conditions in past years. The results will help you decide how hot, cold, wet, or windy it might be!

Date:

Astronomy

Oct. 15, 2014 Rise Set
Actual Time 6:53 AM EDT 5:59 PM EDT
Civil Twilight 6:25 AM EDT 6:27 PM EDT
Nautical Twilight 5:52 AM EDT 7:00 PM EDT
Astronomical Twilight 5:20 AM EDT 7:32 PM EDT
Moon 11:56 PM EDT (10/15) 1:35 PM EDT (10/15)
Length of Visible Light 12h 02m
Length of Day
11h 06m
Waning Gibbous, 51% of the Moon is Illuminated
Oct 15
Waning Gibbous
Oct 15
Last Quarter
Oct 23
New
Oct 30
First Quarter
Nov 6
Full

Hourly Weather History & Observations

Time (EDT) Temp. Dew Point Humidity Pressure Visibility Wind Dir Wind Speed Gust Speed Precip Events Conditions
12:56 AM 66.0 °F 62.1 °F 87% 30.18 in 10.0 mi South 8.1 mph - N/A   Clear
1:56 AM 66.0 °F 62.1 °F 87% 30.18 in 10.0 mi South 8.1 mph - N/A   Clear
2:56 AM 66.0 °F 62.1 °F 87% 30.17 in 10.0 mi South 8.1 mph - N/A   Clear
3:56 AM 66.0 °F 62.1 °F 87% 30.15 in 10.0 mi South 10.4 mph - N/A   Clear
4:56 AM 66.0 °F 63.0 °F 90% 30.15 in 10.0 mi South 11.5 mph - N/A   Clear
5:56 AM 66.0 °F 63.0 °F 90% 30.15 in 10.0 mi South 10.4 mph - N/A   Clear
6:56 AM 66.9 °F 63.0 °F 87% 30.14 in 10.0 mi South 10.4 mph - N/A   Clear
7:56 AM 68.0 °F 64.0 °F 87% 30.15 in 10.0 mi South 11.5 mph - N/A   Clear
8:56 AM 70.0 °F 64.9 °F 84% 30.15 in 10.0 mi South 11.5 mph - N/A   Clear
9:56 AM 70.0 °F 64.0 °F 81% 30.14 in 10.0 mi South 12.7 mph - N/A   Partly Cloudy
10:56 AM 71.1 °F 64.0 °F 78% 30.14 in 10.0 mi South 12.7 mph 24.2 mph N/A   Partly Cloudy
11:56 AM 73.0 °F 64.9 °F 76% 30.13 in 10.0 mi SSW 11.5 mph 20.7 mph N/A   Clear
12:56 PM 72.0 °F 64.9 °F 78% 30.10 in 10.0 mi South 15.0 mph 24.2 mph N/A   Clear
1:56 PM 75.0 °F 66.0 °F 73% 30.08 in 10.0 mi SSW 10.4 mph - N/A   Clear
2:56 PM 73.9 °F 66.0 °F 76% 30.07 in 10.0 mi South 11.5 mph - N/A   Clear
3:56 PM 73.0 °F 66.0 °F 79% 30.07 in 10.0 mi South 10.4 mph - N/A   Clear
4:56 PM 70.0 °F 64.9 °F 84% 30.06 in 10.0 mi South 5.8 mph - N/A   Overcast
5:56 PM 68.0 °F 64.0 °F 87% 30.05 in 10.0 mi Variable 4.6 mph - N/A   Mostly Cloudy
6:56 PM 68.0 °F 64.9 °F 90% 30.06 in 10.0 mi Variable 5.8 mph - N/A   Clear
7:56 PM 66.9 °F 64.0 °F 90% 30.06 in 10.0 mi South 5.8 mph - N/A   Mostly Cloudy
8:56 PM 68.0 °F 64.0 °F 87% 30.06 in 10.0 mi South 5.8 mph - N/A   Overcast
9:56 PM 68.0 °F 64.9 °F 90% 30.04 in 10.0 mi South 4.6 mph - N/A   Overcast
10:56 PM 68.0 °F 63.0 °F 84% 30.03 in 10.0 mi SSE 5.8 mph - N/A   Overcast
11:56 PM 68.0 °F 64.9 °F 90% 30.00 in 10.0 mi SE 8.1 mph - N/A   Clear